Location: Cuiry
(49.3858°N, 3.7708°E)
Time: 21:20:38
(UTC+00:00)

BREEZE-M DEB (TANK) - Pass Details

Date: 12 January 2026
Orbit: 304 x 12632 km, 49.7° (Epoch: 15 February)

Event Time Altitude Azimuth Distance (km) Brightness Sun altitude
Rises 18:01:50 0° 220° (SW) 2,049 6.6 -17.5°
Reaches altitude 10° 18:03:21 10° 208° (SSW) 1,363 5.4 -17.8°
Maximum altitude 18:05:46 33° 139° (SE) 886 3.6 -18.2°
Enters shadow 18:06:14 32° 123° (ESE) 971 3.7 -18.2°
